РПИ Ош

Руководитель РПИ

Evgeny Vygornitsky*

Инструкторы РПИ
Evgeny Vygornitsky (Supervisor)
Vitaliy Alekseyev (Instructor)
Входит в состав
ЗЦ Центральная Азия

Диспетчеры РПИ

Диспетчер Рейтинг Допуски *

Аэропорты РПИ

ICAO Город Название Погода
UCFO Ош Ош UCFO 020100Z 14003MPS CAVOK 21/10 Q1009 R12/0///95 NOSIG